Hourly Data Report for June 20, 2020

WESTERN HEAD
NOVA SCOTIA
Current Station Operator: ECCC - MSC

43°59'24.070" N
64°39'51.008" W
10.10 m
8206240
71411
WWE

Download Data

Hourly Data (June 2020)
Hourly Data Report for June 20, 2020
TIME
LST
Temp Definition
°C
Dew Point Definition
°C
Rel Hum Definition
%
Precip. Amount Definition
mm

Wind Dir Definition
10's deg

Wind Spd Definition
km/h
Visibility Definition
km
Stn Press Definition
kPa
Hmdx Definition


Wind Chill Definition


Weather Definition


00:00 12.9 12.9 100 0.0 21 16   101.45     LegendNANA
01:00 13.4 13.4 100 0.0 22 16   101.43     LegendNANA
02:00 12.8 12.8 100 0.0 22 16   101.43     LegendNANA
03:00 13.1 13.1 100 0.0 21 15   101.41     LegendNANA
04:00 14.6 14.6 100 0.0 25 14   101.39     LegendNANA
05:00 14.9 14.9 100 0.0 24 13   101.38     LegendNANA
06:00 12.3 12.3 100 0.0 23 15   101.37     LegendNANA
07:00 13.2 13.2 100 0.0 24 10   101.39     LegendNANA
08:00 15.6 14.2 91 0.0 24 12   101.41     LegendNANA
09:00 14.7 12.1 85 0.0 21 12   101.41     LegendNANA
10:00 15.2 12.1 82 0.0 20 14   101.41     LegendNANA
11:00 16.0 12.8 81 0.0 23 13   101.41     LegendNANA
12:00 15.5 12.5 82 0.0 24 12   101.40     LegendNANA
13:00 16.1 12.1 78 0.0 22 14   101.37     LegendNANA
14:00 15.1 11.2 78 0.0 23 19   101.36     LegendNANA
15:00 14.6 11.1 79 0.0 23 18   101.34     LegendNANA
16:00 14.8 10.8 77 0.0 22 16   101.31     LegendNANA
17:00 14.5 10.2 75 0.0 26 12   101.36     LegendNANA
18:00 12.1 9.8 86 0.0 25 14   101.38     LegendNANA
19:00 12.6 10.4 86 0.0 22 12   101.43     LegendNANA
20:00 14.1 12.1 88 0.0 25 14   101.49     LegendNANA
21:00 13.6 12.1 91 0.0 23 12   101.57     LegendNANA
22:00 15.4 15.4 100 0.0 25 13   101.57     LegendNANA
23:00 10.4 10.4 100 0.0 2 12   101.69     LegendNANA

Notes on Data Quality.

Legend

  • E = Estimated
  • M = Missing
  • NA = Not Available*
  • [empty] = Indicates an unobserved value
Date modified: